{"data":{"norad_id":68354,"epoch":"2026-09-19T00:39:27.625248Z","epoch_age_seconds":199491,"freshness":"STALE","line1":"1 68354U 26060E   26262.02740307  .00000286  00000+0  19824-3 0  9993","line2":"2 68354  54.9772  31.6034 0007252 261.2782  98.7372 14.22208988 26326","mean_motion":14.22208988,"eccentricity":0.0007252,"inclination_deg":54.9772,"raan_deg":31.6034,"arg_perigee_deg":261.2782,"mean_anomaly_deg":98.7372,"bstar":0.00019824,"rev_number":2632,"period_min":101.25094217166,"perigee_km":812.67328208193,"apogee_km":823.11040231465,"semimajor_km":7196.0288421983,"source":"CELESTRAK","updated_at":"2026-09-20T09:00:24.159417Z"}}